DW1653 Weather Reports


Display with metric or nautical units.
time (UTC)temp
F
wind
direction
speed
MPH
gust
MPH
rain 1hr
in
rain 24hr
in
rain mn
in
humidity
%
barometer
mb
20260505230331 69 178 9.0 23.0 0.00 0.00 0.00 64 1010.3
20260505225825 70 194 7.0 21.0 0.00 0.00 0.00 64 1010.2
20260505225320 70 148 9.0 21.0 0.00 0.00 0.00 63 1010.2
20260505224832 70 171 7.0 22.0 0.00 0.00 0.00 62 1010.1
20260505224322 70 217 7.0 18.0 0.00 0.00 0.00 62 1010.2
20260505223814 70 191 8.0 21.0 0.00 0.00 0.00 62 1010.1
20260505223345 70 138 12.0 21.0 0.00 0.00 0.00 62 1010.1
20260505222835 70 232 8.0 23.0 0.00 0.00 0.00 63 1010.0
20260505222327 70 182 9.0 23.0 0.00 0.00 0.00 64 1010.0
20260505221818 69 176 9.0 23.0 0.00 0.00 0.00 64 1010.0
20260505221314 69 171 10.0 23.0 0.00 0.00 0.00 65 1010.0
20260505220825 70 215 11.0 20.0 0.00 0.00 0.00 64 1010.0
20260505220317 70 301 8.0 24.0 0.00 0.00 0.00 63 1010.0
20260505215829 70 178 12.0 24.0 0.00 0.00 0.00 63 1009.9
20260505215320 71 244 10.0 22.0 0.00 0.00 0.00 63 1009.9
20260505214830 71 178 6.0 19.0 0.00 0.00 0.00 63 1009.8
20260505214322 71 184 7.0 19.0 0.00 0.00 0.00 63 1009.7
20260505213833 71 166 8.0 26.0 0.00 0.00 0.00 62 1009.8
20260505213345 71 173 10.0 26.0 0.00 0.00 0.00 62 1009.7
20260505212823 71 161 8.0 19.0 0.00 0.00 0.00 62 1009.7
20260505212333 71 207 9.0 17.0 0.00 0.00 0.00 63 1009.6
20260505211824 71 146 8.0 20.0 0.00 0.00 0.00 64 1009.6
20260505210850 71 242 11.0 21.0 0.00 0.00 0.00 64 1009.5
20260505210320 71 94 7.0 17.0 0.00 0.00 0.00 64 1009.5
20260505205835 71 142 9.0 21.0 0.00 0.00 0.00 64 1009.4
20260505205324 71 136 10.0 26.0 0.00 0.00 0.00 64 1009.4
20260505204816 71 157 9.0 26.0 0.00 0.00 0.00 64 1009.4
20260505204327 71 229 9.0 22.0 0.00 0.00 0.00 65 1009.5
20260505203822 70 183 8.0 22.0 0.00 0.00 0.00 66 1009.5
20260505203314 70 239 8.0 27.0 0.00 0.00 0.00 66 1009.4
20260505202828 70 191 11.0 27.0 0.00 0.00 0.00 66 1009.5
20260505202319 70 198 8.0 22.0 0.00 0.00 0.00 65 1009.6
20260505201833 70 188 13.0 29.0 0.00 0.00 0.00 64 1009.5
20260505201344 71 229 9.0 29.0 0.00 0.00 0.00 63 1009.6
20260505200834 72 95 9.0 20.0 0.00 0.00 0.00 61 1009.6
20260505200325 72 76 6.0 20.0 0.00 0.00 0.00 61 1009.5
20260505195816 72 196 7.0 21.0 0.00 0.00 0.00 62 1009.6
20260505195331 71 164 6.0 16.0 0.00 0.00 0.00 62 1009.6
20260505194822 71 146 6.0 15.0 0.00 0.00 0.00 61 1009.7
20260505194334 71 130 6.0 15.0 0.00 0.00 0.00 62 1009.7
20260505193825 71 190 7.0 15.0 0.00 0.00 0.00 62 1009.7
20260505193316 71 163 6.0 12.0 0.00 0.00 0.00 60 1009.8
20260505192829 71 183 6.0 12.0 0.00 0.00 0.00 60 1009.9
20260505192320 72 188 5.0 14.0 0.00 0.00 0.00 59 1009.9
20260505191833 74 156 8.0 15.0 0.00 0.00 0.00 57 1009.9
20260505191328 74 248 5.0 15.0 0.00 0.00 0.00 60 1009.9
20260505190820 74 154 7.0 15.0 0.00 0.00 0.00 59 1009.9
20260505190332 74 188 8.0 24.0 0.00 0.00 0.00 59 1010.0
20260505185824 74 194 7.0 24.0 0.00 0.00 0.00 60 1010.0
20260505185316 73 219 8.0 16.0 0.00 0.00 0.00 59 1010.2
20260505184827 72 179 4.0 15.0 0.00 0.00 0.00 60 1010.2
20260505184318 72 167 6.0 16.0 0.00 0.00 0.00 60 1010.2
20260505183832 72 140 8.0 16.0 0.00 0.00 0.00 60 1010.4
20260505183327 72 151 5.0 13.0 0.00 0.00 0.00 61 1010.5
20260505182818 71 125 5.0 18.0 0.00 0.00 0.00 62 1010.4
20260505182330 71 161 5.0 18.0 0.00 0.00 0.00 62 1010.6
20260505181822 70 142 6.0 15.0 0.00 0.00 0.00 62 1010.5
20260505181333 70 152 9.0 18.0 0.00 0.00 0.00 62 1010.7
20260505180825 70 191 7.0 14.0 0.00 0.00 0.00 62 1010.6
20260505180316 70 186 7.0 16.0 0.00 0.00 0.00 63 1010.8
20260505175827 69 140 7.0 20.0 0.00 0.00 0.00 63 1010.7
20260505175323 69 189 8.0 20.0 0.00 0.00 0.00 64 1010.8
20260505174815 69 172 8.0 13.0 0.00 0.00 0.00 63 1010.9
20260505174326 69 207 8.0 16.0 0.00 0.00 0.00 62 1010.9
20260505173817 70 136 7.0 16.0 0.00 0.00 0.00 61 1010.9
20260505173332 70 170 4.0 12.0 0.00 0.00 0.00 63 1010.9
20260505172825 70 149 5.0 10.0 0.00 0.00 0.00 63 1010.9
20260505172316 70 153 4.0 11.0 0.00 0.00 0.00 63 1011.0
20260505171830 69 126 6.0 12.0 0.00 0.00 0.00 63 1010.9
20260505171325 69 204 5.0 16.0 0.00 0.00 0.00 64 1010.9
20260505170817 69 181 7.0 12.0 0.00 0.00 0.00 62 1011.0
20260505170329 69 175 7.0 11.0 0.00 0.00 0.00 62 1011.0
20260505165841 70 119 6.0 11.0 0.00 0.00 0.00 63 1011.0
20260505165331 70 151 6.0 12.0 0.00 0.00 0.00 63 1011.1
20260505164820 71 159 6.0 13.0 0.00 0.00 0.00 62 1011.2
20260505164312 71 151 7.0 13.0 0.00 0.00 0.00 61 1011.2
20260505163826 71 180 5.0 12.0 0.00 0.00 0.00 61 1011.2
20260505163318 72 150 5.0 13.0 0.00 0.00 0.00 61 1011.3
20260505162829 72 191 5.0 13.0 0.00 0.00 0.00 62 1011.3
20260505162345 72 161 5.0 11.0 0.00 0.00 0.00 62 1011.4
20260505161815 71 132 4.0 12.0 0.00 0.00 0.00 61 1011.5
20260505161349 71 197 7.0 12.0 0.00 0.00 0.00 61 1011.6
20260505160819 71 160 5.0 12.0 0.00 0.00 0.00 63 1011.8
20260505160331 71 184 4.0 11.0 0.00 0.00 0.00 64 1011.7
20260505153324 70 178 3.0 11.0 0.00 0.00 0.00 62 1011.9
20260505152328 71 175 4.0 9.0 0.00 0.00 0.00 61 1011.9
20260505151840 72 130 4.0 8.0 0.00 0.00 0.00 61 1012.0
20260505151331 72 122 3.0 7.0 0.00 0.00 0.00 58 1012.0
20260505150842 73 120 4.0 11.0 0.00 0.00 0.00 56 1012.0
20260505150352 75 153 3.0 11.0 0.00 0.00 0.00 56 1012.0
20260505140320 74 213 4.0 10.0 0.00 0.00 0.00 51 1012.0
20260505124821 67 205 3.0 10.0 0.00 0.00 0.00 63 1012.1
20260505124316 67 227 6.0 11.0 0.00 0.00 0.00 64 1012.1
20260505123831 67 236 4.0 11.0 0.00 0.00 0.00 65 1012.1
20260505123323 66 211 4.0 8.0 0.00 0.00 0.00 66 1012.1
20260505122814 66 249 5.0 11.0 0.00 0.00 0.00 67 1012.1
20260505122329 66 246 4.0 11.0 0.00 0.00 0.00 67 1012.1
20260505121824 65 178 3.0 11.0 0.00 0.00 0.00 68 1012.0
20260505121316 65 261 3.0 14.0 0.00 0.00 0.00 68 1012.0
20260505120827 65 202 7.0 14.0 0.00 0.00 0.00 68 1012.0
20260505120319 64 169 2.0 8.0 0.00 0.00 0.00 69 1012.0
20260505115830 64 219 3.0 9.0 0.00 0.00 0.00 70 1012.0
20260505115322 64 215 4.0 9.0 0.00 0.00 0.00 71 1012.0
20260505114833 63 246 3.0 9.0 0.00 0.00 0.00 72 1012.0
20260505114325 63 282 4.0 10.0 0.00 0.00 0.00 72 1012.0
20260505113837 63 285 5.0 10.0 0.00 0.00 0.00 73 1012.0
20260505113331 62 278 1.0 9.0 0.00 0.00 0.00 73 1012.0
20260505112823 62 202 3.0 9.0 0.00 0.00 0.00 74 1011.9
20260505112315 62 265 4.0 9.0 0.00 0.00 0.00 74 1011.8
20260505111826 61 215 3.0 9.0 0.00 0.00 0.00 75 1011.9
20260505111338 61 227 2.0 7.0 0.00 0.00 0.00 75 1011.8
20260505110828 61 229 2.0 7.0 0.00 0.00 0.00 75 1011.7
20260505110320 61 257 3.0 7.0 0.00 0.00 0.00 76 1011.7
20260505101841 60 238 3.0 6.0 0.00 0.00 0.00 79 1011.3
20260505101332 60 220 3.0 9.0 0.00 0.00 0.00 79 1011.1
20260505100823 60 273 2.0 9.0 0.00 0.00 0.00 79 1011.1
20260505100319 60 250 3.0 7.0 0.00 0.00 0.00 79 1011.1
20260505095814 59 202 3.0 7.0 0.00 0.00 0.00 80 1011.1
20260505095329 59 234 2.0 7.0 0.00 0.00 0.00 79 1011.1
20260505094820 59 205 3.0 8.0 0.00 0.00 0.00 79 1011.1
20260505094353 59 265 3.0 8.0 0.00 0.00 0.00 79 1011.1
20260505093823 59 208 2.0 7.0 0.00 0.00 0.00 80 1011.1
20260505093317 59 223 3.0 10.0 0.00 0.00 0.00 80 1011.1
20260505092829 59 254 4.0 10.0 0.00 0.00 0.00 80 1011.2
20260505092342 59 247 4.0 13.0 0.00 0.00 0.00 81 1011.1
20260505091817 59 260 5.0 13.0 0.00 0.00 0.00 81 1011.2
20260505091330 59 271 4.0 11.0 0.00 0.00 0.00 81 1011.2
20260505090821 59 219 3.0 7.0 0.00 0.00 0.00 82 1011.2
20260505090332 58 232 3.0 7.0 0.00 0.00 0.00 82 1011.2
20260505085824 58 238 2.0 4.0 0.00 0.00 0.00 82 1011.2
20260505085355 58 220 2.0 4.0 0.00 0.00 0.00 82 1011.2
20260505084826 58 215 2.0 4.0 0.00 0.00 0.00 82 1011.3
20260505084317 58 252 2.0 7.0 0.00 0.00 0.00 82 1011.2
20260505083827 58 215 1.0 7.0 0.00 0.00 0.00 82 1011.1
20260505083322 58 201 1.0 5.0 0.00 0.00 0.00 83 1011.1
20260505082854 58 229 2.0 4.0 0.00 0.00 0.00 83 1011.1
20260505082325 58 209 2.0 4.0 0.00 0.00 0.00 83 1011.1
20260505081816 57 193 2.0 7.0 0.00 0.00 0.00 83 1011.1
20260505081328 57 188 2.0 7.0 0.00 0.00 0.00 83 1011.1
20260505080823 57 229 3.0 5.0 0.00 0.00 0.00 84 1011.1
20260505080315 57 241 2.0 5.0 0.00 0.00 0.00 84 1011.0
20260505075826 57 213 2.0 5.0 0.00 0.00 0.00 84 1011.1
20260505075322 57 227 2.0 4.0 0.00 0.00 0.00 84 1011.1
20260505074833 57 213 2.0 4.0 0.00 0.00 0.00 84 1011.1
20260505074346 57 211 2.0 5.0 0.00 0.00 0.00 84 1011.1
20260505073818 57 183 3.0 6.0 0.00 0.00 0.00 85 1011.1
20260505073330 57 204 3.0 6.0 0.00 0.00 0.00 85 1011.0
20260505072821 57 194 2.0 7.0 0.00 0.00 0.00 85 1011.1
20260505072332 56 212 3.0 7.0 0.00 0.00 0.00 86 1011.0
20260505071844 56 235 2.0 5.0 0.00 0.00 0.00 86 1011.0
20260505071315 56 244 2.0 6.0 0.00 0.00 0.00 86 1010.9
20260505070826 56 180 2.0 7.0 0.00 0.00 0.00 86 1010.9
20260505070320 56 215 2.0 7.0 0.00 0.00 0.00 86 1010.9
20260505065831 56 214 2.0 5.0 0.00 0.00 0.00 86 1011.0
20260505065342 56 197 2.0 5.0 0.00 0.00 0.00 87 1010.9
20260505064852 56 199 2.0 5.0 0.00 0.00 0.00 87 1011.0
20260505064323 56 228 1.0 4.0 0.00 0.00 0.00 87 1011.0
20260505063815 56 216 2.0 4.0 0.00 0.00 0.00 87 1011.0
20260505063327 56 188 2.0 3.0 0.00 0.00 0.00 87 1011.0
20260505062838 56 223 1.0 4.0 0.00 0.00 0.00 87 1011.0
20260505062329 56 229 1.0 5.0 0.00 0.00 0.00 87 1011.0
20260505061820 56 232 2.0 5.0 0.00 0.00 0.00 87 1011.1
20260505061314 56 221 1.0 9.0 0.00 0.00 0.00 87 1011.0
20260505060828 56 189 3.0 9.0 0.00 0.00 0.00 87 1011.1
20260505060319 56 206 3.0 10.0 0.00 0.00 0.00 87 1011.1
20260505055831 56 204 4.0 10.0 0.00 0.00 0.00 87 1011.3
20260505055322 56 190 4.0 13.0 0.00 0.00 0.00 86 1011.2
20260505054854 56 248 4.0 13.0 0.00 0.00 0.00 86 1011.3
20260505054324 56 221 4.0 14.0 0.00 0.00 0.00 86 1011.2
20260505053818 57 159 6.0 15.0 0.00 0.00 0.00 86 1011.2
20260505053350 57 155 5.0 12.0 0.00 0.00 0.00 86 1011.1
20260505052840 57 202 5.0 12.0 0.00 0.00 0.00 86 1011.2
20260505052334 57 189 5.0 14.0 0.00 0.00 0.00 86 1011.3
20260505051825 57 188 6.0 14.0 0.00 0.00 0.00 86 1011.3
20260505051317 57 127 4.0 12.0 0.00 0.00 0.00 86 1011.4
20260505050848 57 162 6.0 12.0 0.00 0.00 0.00 86 1011.4
20260505050339 57 175 5.0 11.0 0.00 0.00 0.00 86 1011.5
20260505041324 58 159 5.0 11.0 0.00 0.00 0.00 84 1011.7
20260505040819 58 188 6.0 12.0 0.00 0.00 0.00 84 1011.6
20260505040331 58 187 4.0 12.0 0.00 0.00 0.00 84 1011.6
20260505035821 58 212 5.0 12.0 0.00 0.00 0.00 83 1011.7
20260505035353 58 196 5.0 11.0 0.00 0.00 0.00 83 1011.7
20260505034824 58 188 4.0 12.0 0.00 0.00 0.00 83 1011.7
20260505034315 58 155 4.0 10.0 0.00 0.00 0.00 82 1011.7
20260505033847 58 218 4.0 10.0 0.00 0.00 0.00 82 1011.7
20260505033324 58 236 4.0 11.0 0.00 0.00 0.00 81 1011.6
20260505032855 58 207 3.0 11.0 0.00 0.00 0.00 81 1011.7
20260505032327 59 192 6.0 11.0 0.00 0.00 0.00 80 1011.8
20260505031818 59 197 3.0 11.0 0.00 0.00 0.00 80 1011.9
20260505031330 59 229 4.0 11.0 0.00 0.00 0.00 79 1011.9
20260505030824 59 216 5.0 11.0 0.00 0.00 0.00 79 1011.9
20260505030314 59 207 4.0 12.0 0.00 0.00 0.00 79 1011.8
20260505025828 59 200 7.0 12.0 0.00 0.00 0.00 78 1011.9
20260505025324 59 154 4.0 11.0 0.00 0.00 0.00 78 1012.0
20260505024815 59 205 5.0 11.0 0.00 0.00 0.00 78 1011.9
20260505024330 59 186 4.0 9.0 0.00 0.00 0.00 78 1011.9
20260505023822 59 188 4.0 9.0 0.00 0.00 0.00 78 1012.0
20260505023353 59 187 5.0 9.0 0.00 0.00 0.00 78 1012.0
20260505022823 59 182 3.0 7.0 0.00 0.00 0.00 77 1012.0
20260505022319 59 209 3.0 7.0 0.00 0.00 0.00 77 1012.1
20260505021831 59 204 3.0 8.0 0.00 0.00 0.00 77 1012.1
20260505021322 59 203 3.0 8.0 0.00 0.00 0.00 77 1012.1
20260505020817 59 195 4.0 8.0 0.00 0.00 0.00 77 1012.1
20260505020311 59 183 4.0 8.0 0.00 0.00 0.00 77 1012.1
20260505015826 59 186 3.0 8.0 0.00 0.00 0.00 77 1012.1
20260505015319 59 200 4.0 7.0 0.00 0.00 0.00 77 1012.0
20260505014829 59 211 3.0 7.0 0.00 0.00 0.00 77 1012.0
20260505014341 59 206 3.0 7.0 0.00 0.00 0.00 78 1012.0
20260505013831 59 213 3.0 11.0 0.00 0.00 0.00 78 1012.0
20260505013323 59 230 4.0 11.0 0.00 0.00 0.00 78 1012.0
20260505012818 59 174 5.0 8.0 0.00 0.00 0.00 79 1012.0
20260505012333 59 155 4.0 8.0 0.00 0.00 0.00 79 1011.9
20260505011316 59 180 5.0 11.0 0.00 0.00 0.00 80 1011.9
20260505010338 58 161 4.0 8.0 0.00 0.00 0.00 80 1011.8
20260505005849 59 187 3.0 12.0 0.00 0.00 0.00 80 1011.8
20260505005340 58 179 4.0 12.0 0.00 0.00 0.00 80 1011.7
20260505004833 59 167 6.0 11.0 0.00 0.00 0.00 80 1011.6
20260505004325 59 173 4.0 10.0 0.00 0.00 0.00 80 1011.6
20260505003823 59 214 5.0 11.0 0.00 0.00 0.00 79 1011.5
20260505003315 59 185 5.0 11.0 0.00 0.00 0.00 79 1011.5
20260505002828 59 175 5.0 11.0 0.00 0.00 0.00 79 1011.5
20260505002319 59 195 4.0 13.0 0.00 0.00 0.00 79 1011.3
20260505001831 59 169 7.0 13.0 0.00 0.00 0.00 78 1011.2
20260505001325 59 209 6.0 13.0 0.00 0.00 0.00 78 1011.2
20260505000816 59 165 5.0 13.0 0.00 0.00 0.00 77 1011.0
20260505000327 59 207 3.0 11.0 0.00 0.00 0.00 76 1011.0
20260504235823 59 207 5.0 15.0 0.00 0.00 0.00 76 1011.0
20260504235333 60 182 6.0 16.0 0.00 0.00 0.00 75 1010.9
20260504234825 60 200 5.0 19.0 0.00 0.00 0.00 75 1011.0
20260504234339 60 199 5.0 19.0 0.00 0.00 0.00 74 1010.9
20260504233829 61 178 6.0 17.0 0.00 0.00 0.00 73 1010.9
20260504233320 61 207 8.0 17.0 0.00 0.00 0.00 73 1010.8
20260504232815 61 138 4.0 14.0 0.00 0.00 0.00 72 1010.8
20260504232326 61 167 6.0 17.0 0.00 0.00 0.00 71 1010.7
20260504231819 62 163 6.0 17.0 0.00 0.00 0.00 70 1010.7
20260504231316 62 198 7.0 17.0 0.00 0.00 0.00 69 1010.7
20260504230827 62 175 8.0 16.0 0.00 0.00 0.00 69 1010.6